SCP
-0 -0 -0 -0 -0 -0 -0 -0 -0 -0 -0 -0 -0 -0 -0 -0 -0 -0 -0 -0 -0 -0 -0 -0 0 0 0 0 0 -0 -0 0 0 -0 -0 -0 -0 -0 -0 0 -0 -0 -0 -0 -0 -0 0
-0 -0 -0 -0 -0 -0 -0 -0 -0 -0 -0 -0 -0 -0 -0 -0 -0 -0 -0 -0 -0 -0 -0 -0 0 -0 -0 -0 0 -0 0 0 0 -0 0 -0 -0 -0 -0 -0 -0 -0 -0 -0 -0 -0 0
-0 -0 -0 -0 -0 -0 -0 -0 -0 -0 -0 -0 -0 -0 -0 -0 -0 -0 -0 -0 -0 -0 -0 -0 0 0 0 0 0 -0 0 0 0 -0 -0 0 0 -0 -0 -0 -0 -0 -0 -0 -0 -0 -0
-0 -0 -0 -0 -0 -0 -0 -0 -0 -0 -0 -0 -0 -0 -0 -0 -0 -0 -0 -0 -0 -0 -0 -0 0 0 0 0 -0 -0 0 0 0 0 0 0 0 -0 -0 -0 0 -0 -0 -0 -0 -0 0
-0 -0 -0 -0 -0 -0 -0 -0 -0 -0 -0 -0 -0 -0 -0 -0 -0 -0 -0 -0 -0 0 0 0 0 0 0 0 0 -0 0 0 0 0 0 0 0 -0 -0 -0 -0 -0 0 -0 -0 -0 -0
-0 -0 -0 -0 -0 -0 -0 -0 -0 -0 -0 -0 -0 -0 -0 -0 -0 -0 -0 -0 0 -0 -0 -0 0 -0 0 0 0 0 -0 -0 0 0 -0 0 -0 0 -0 0 0 -0 0 0 -0 -0 -0
-0 -0 -0 -0 -0 -0 -0 -0 -0 -0 -0 -0 -0 -0 -0 -0 -0 -0 -0 0 -0 -0 -0 0 0 -0 0 0 0 -0 -0 0 0 0 0 -0 0 0 0 0 -0 -0 0 0 0 0 0
0 -0 -0 -0 -0 0 0 -0 -0 -0 -0 -0 -0 -0 -0 -0 -0 -0 -0 0 -0 0 0 -0 0 -0 -0 0 0 -0 -0 0 0 0 0 -0 0 -0 0 0 0 -0 0 0 0 -0 0
-0 -0 -0 -0 -0 -0 -0 -0 -0 -0 -0 -0 -0 -0 -0 -0 -0 -0 -0 0 0 0 -0 -0 0 0 0 -0 0 -0 0 0 0 0 -0 0 -0 0 0 0 -0 0 0 0 -0 0 -0
-0 -0 -0 -0 -0 -0 -0 -0 0 0 0 -0 -0 -0 -0 -0 0 0 0 0 -0 0 0 -0 0 0 -0 0 0 -0 0 0 -0 0 0 -0 0 0 -0 -0 0 0 0 0 -0 -0 0
0 0 0 -0 0 0 0 -0 0 0 0 0 0 0 0 0 0 0 0 0 0 -0 0 0 0 0 -0 0 -0 -0 0 0 0 0 0 -0 -0 -0 0 0 0 0 0 0 0 -0 -0
0 0 0 0 0 0 0 0 0 0 0 0 0 0 0 0 0 0 0 0 0 0 0 0 0 0 -0 0 0 -0 -0 0 -0 -0 0 0 0 -0 0 0 0 0 -0 0 0 0 0
0 0 0 0 0 0 0 0 0 0 0 0 0 0 0 0 0 0 0 0 0 0 0 0 0 -0 -0 0 -0 -0 -0 -0 0 0 -0 -0 -0 0 0 0 0 0 -0 0 -0 0 0
0 0 0 0 0 0 0 0 0 0 0 0 0 -0 0 0 0 0 0 0 0 0 0 0 0 0 -0 -0 -0 -0 -0 -0 -0 -0 -0 -0 -0 -0 0 -0 0 0 -0 0 -0 -0 0
0 0 0 0 0 0 0 0 0 0 0 0 -0 0 0 0 0 0 0 0 0 0 0 0 0 0 -0 0 -0 -0 -0 -0 -0 0 -0 0 0 -0 -0 0 0 0 0 -0 -0 -0 0
0 0 0 0 0 0 0 0 0 0 0 0 0 0 0 0 0 0 0 0 0 -0 0 0 0 -0 -0 0 0 0 -0 0 0 -0 0 0 0 -0 0 0 0 0 -0 -0 0 0 0
0 0 0 0 0 0 0 0 0 0 0 0 0 0 0 0 0 0 0 0 0 0 0 0 0 -0 -0 0 0 0 0 -0 0 0 0 -0 0 0 0 -0 -0 -0 0 0 -0 0 0
0 0 0 0 0 0 0 0 0 0 0 0 0 0 0 0 0 0 0 0 0 0 0 0 0 0 0 -0 0 0 0 0 -0 -0 -0 0 -0 -0 -0 -0 0 0 0 0 0 -0 0
0 0 0 0 0 0 0 0 0 0 0 0 0 0 0 0 0 0 0 0 0 0 0 0 0 0 0 0 0 0 0 0 0 -0 0 -0 0 0 0 -0 0 0 0 0 -0 -0 0
0 0 0 0 0 0 0 0 0 0 0 0 0 0 0 0 0 0 0 0 0 0 0 0 0 0 0 0 0 0 0 0 0 -0 0 0 0 -0 0 0 0 0 0 0 0 0 0
0 0 0 0 0 0 0 0 0 0 0 0 0 0 0 0 0 0 0 0 0 0 0 0 0 0 0 0 0 0 0 0 0 0 0 -0 0 0 0 0 0 0 0 0 0 0 0
0 0 0 0 0 0 0 0 0 0 0 0 0 0 0 0 0 0 0 0 0 0 0 0 0 0 0 0 0 0 0 0 0 0 0 0 0 0 0 0 0 0 0 0 0 0 0
0 0 0 0 0 0 0 0 0 0 0 0 0 0 0 0 0 0 0 0 0 0 0 0 0 0 0 0 0 0 0 0 0 0 0 0 0 0 0 0 0 0 -0 0 0 0 0
0 0 0 0 0 0 0 0 0 0 0 0 0 0 0 0 0 0 0 0 0 0 0 0 0 0 0 0 0 0 0 0 0 0 0 0 0 0 0 0 0 0 0 0 0 0 0
0 0 0 0 0 0 0 0 0 0 0 0 0 0 0 0 0 0 0 0 0 0 0 0 0 0 0 0 0 0 0 0 0 0 0 0 0 0 0 0 0 0 0 0 0 0 0
0 0 0 0 0 0 0 0 0 0 0 0 0 0 0 0 0 0 0 0 0 0 0 0 0 0 0 0 0 0 0 0 0 0 0 0 0 0 0 0 0 0 0 0 0 0 0
0 0 0 0 0 0 0 0 0 0 0 0 0 0 0 0 0 0 0 0 0 0 0 0 0 0 0 0 0 0 0 0 0 0 0 0 0 0 0 0 0 0 0 0 0 0 0
0 0 0 0 0 0 0 0 0 0 0 0 0 0 0 0 0 0 0 0 0 0 0 0 0 0 0 0 0 0 0 0 0 0 0 0 0 0 0 0 0 0 0 0 0 0 0
0 0 0 0 0 0 0 0 0 0 0 0 0 0 0 0 0 0 0 0 0 0 0 0 0 0 0 0 0 0 0 0 0 0 0 0 0 0 0 0 0 0 0 0 0 0 0
Wind_Speed_500mb
38 37 36 35 34 33 32 31 31 30 28 26 23 21 19 17 17 17 17 15 14 11 10 12 11 9 15 15 5 5 16 22 18 10 12 15 21 13 13 6 12 26 18 28 21 23 27
36 36 36 36 35 35 34 33 32 31 29 28 25 22 20 18 17 16 16 16 10 6 4 8 10 4 9 28 6 6 13 19 17 16 15 14 11 16 11 14 28 22 19 25 31 21 12
33 33 34 34 35 35 35 35 34 33 31 30 28 25 22 19 17 16 17 19 7 2 1 2 7 1 14 4 7 10 18 20 20 17 16 12 12 18 14 24 21 27 28 20 28 19 10
31 32 33 34 34 35 35 35 34 34 33 32 30 27 25 21 18 17 16 17 12 5 6 3 3 8 4 4 10 11 17 22 24 18 13 12 13 23 23 14 14 14 24 12 17 23 11
28 29 31 32 33 34 34 35 35 35 35 34 32 31 28 24 19 16 15 20 14 5 8 5 2 11 11 6 16 16 15 21 23 21 17 14 14 35 10 34 8 24 11 24 20 23 23
27 28 29 31 32 34 35 35 36 36 36 36 34 32 31 27 21 15 13 21 9 7 9 10 13 16 14 19 19 19 18 19 29 25 20 22 21 24 28 16 9 33 10 13 19 22 19
30 30 31 32 33 34 36 37 37 38 38 37 36 32 30 29 23 13 11 17 7 8 20 27 10 15 7 14 19 20 20 25 29 29 30 32 23 29 30 33 44 19 10 16 15 16 17
33 34 35 37 39 40 40 40 39 39 38 38 37 35 30 28 21 12 5 12 8 13 21 24 18 15 7 19 23 22 26 28 28 29 36 23 26 33 3 12 11 17 1 8 11 14 17
34 35 37 39 40 41 42 43 42 40 39 37 37 36 31 25 15 6 12 11 7 18 17 25 21 27 23 21 26 30 33 31 27 31 30 28 27 19 9 18 20 25 7 11 26 18 16
38 38 39 39 40 42 42 42 41 40 39 39 37 35 33 18 5 11 13 14 12 16 14 32 25 17 27 23 16 32 34 22 24 27 24 25 30 12 23 25 26 3 14 7 14 16 5
36 36 37 39 39 41 41 41 41 40 39 39 38 36 29 25 18 7 4 9 13 11 13 29 30 28 30 31 31 29 32 21 25 25 21 29 23 22 25 27 30 8 8 12 12 23 26
40 40 39 40 41 41 42 42 41 40 41 40 38 34 30 22 17 17 16 13 11 15 19 22 23 26 30 31 21 28 33 27 19 19 27 19 4 19 28 6 7 7 12 14 20 22 18
39 39 40 41 41 42 44 46 45 42 41 41 35 33 31 22 7 12 10 14 15 21 13 22 32 34 34 23 25 32 32 33 23 23 25 25 25 23 11 23 17 22 32 9 12 10 17
41 41 41 42 41 41 43 44 44 45 42 42 37 34 29 21 20 19 12 20 25 21 37 8 30 34 33 31 25 33 34 31 37 40 19 24 27 27 24 31 14 27 35 19 15 16 12
39 39 39 40 41 41 41 42 41 39 40 44 40 21 22 17 16 18 27 26 28 31 14 15 21 28 36 28 19 31 36 34 35 28 32 17 16 33 30 20 20 12 15 28 18 15 9
36 35 34 34 36 38 40 40 41 40 37 36 39 22 19 18 16 19 22 38 36 34 19 22 35 28 33 34 28 26 33 34 33 34 35 6 19 27 24 18 21 29 25 13 13 4 20
36 34 34 34 35 35 35 38 41 38 32 30 22 16 9 10 15 27 25 39 41 37 17 26 33 35 36 29 35 28 24 23 36 30 29 32 20 17 18 25 30 16 20 15 24 15 7
35 34 34 35 37 36 35 35 37 38 30 18 14 10 7 4 20 31 28 41 20 32 31 31 19 33 26 35 27 36 31 28 34 31 31 35 16 24 33 29 15 22 18 17 13 16 13
32 32 33 34 34 33 33 33 31 32 29 24 13 27 15 16 14 24 29 33 33 26 37 34 32 27 23 30 26 30 31 13 23 26 22 30 23 20 25 28 24 21 28 27 27 26 19
32 31 32 32 31 31 29 27 27 25 21 15 14 9 21 26 35 27 29 31 31 37 43 38 33 35 25 26 29 27 30 22 22 29 4 23 30 28 3 26 7 26 18 10 26 21 16
28 28 28 28 25 27 26 24 22 21 16 10 13 7 12 9 11 20 28 19 25 35 27 36 30 30 28 30 33 33 29 22 19 20 17 25 35 20 21 30 8 15 16 16 22 30 32
27 27 29 29 28 26 23 20 20 15 9 7 16 12 16 32 28 20 18 27 34 27 26 30 26 31 36 33 33 27 31 41 29 27 30 34 34 26 26 12 12 21 20 24 22 24 27
30 28 27 27 27 25 22 19 17 15 9 10 12 18 16 21 22 20 23 24 28 26 18 24 20 21 11 14 25 34 40 45 31 36 34 36 31 25 29 26 18 21 27 26 21 20 19
28 27 28 28 26 21 18 18 18 18 16 16 11 14 19 21 18 19 20 26 21 22 23 22 12 10 8 23 32 27 35 43 40 30 34 35 31 25 23 23 25 24 7 11 17 18 18
26 26 27 26 23 19 18 20 17 19 19 20 20 9 12 16 26 16 16 27 30 28 23 34 32 23 25 25 15 16 26 35 42 32 35 32 30 26 22 27 23 20 15 19 18 20 18
23 24 27 22 20 19 18 16 11 16 17 25 22 19 13 10 12 24 22 21 20 19 24 34 30 22 13 11 15 27 26 30 42 40 32 35 28 23 21 27 32 25 7 21 6 20 21
21 20 22 23 22 22 19 17 13 13 14 14 26 17 14 10 35 31 18 10 14 23 18 8 12 31 21 16 19 24 29 37 40 46 22 32 26 31 28 19 22 8 14 17 15 6 8
17 18 20 23 23 21 18 17 16 14 14 15 21 21 22 12 35 37 27 31 28 25 18 23 16 23 19 19 23 22 23 30 36 37 47 39 32 29 28 29 28 19 20 20 4 5 5
14 15 17 19 22 22 20 17 16 17 15 18 27 20 21 29 28 24 31 40 40 33 23 17 22 8 7 9 12 12 26 28 35 29 24 36 34 30 28 25 23 21 26 21 25 8 10
Wind_Direction_500mb
49 46 44 43 40 38 35 32 30 28 23 19 13 5 356 348 346 352 354 2 8 25 56 66 73 124 154 208 85 243 186 182 179 207 238 254 267 306 307 75 62 86 96 113 110 97 108
44 42 39 37 35 33 31 28 25 23 18 14 9 2 353 345 343 346 347 348 340 335 43 50 49 133 207 241 142 208 169 191 193 220 237 244 316 304 307 26 90 95 109 113 118 102 100
38 36 33 30 28 25 23 21 19 17 13 9 5 358 349 340 339 341 345 354 22 228 234 36 19 33 241 37 168 206 197 203 209 215 239 240 289 277 287 115 126 137 134 133 115 121 111
28 28 26 24 22 20 17 14 12 10 7 4 0 354 347 336 333 336 343 352 327 266 224 268 311 226 297 177 207 204 196 206 213 213 223 250 269 276 286 88 193 155 148 139 137 147 139
16 15 14 14 13 12 10 7 6 3 1 358 356 351 344 333 324 325 332 338 328 246 219 260 230 235 186 238 201 198 189 201 198 201 224 253 255 254 176 224 138 134 204 133 155 171 154
0 359 357 357 358 358 358 357 356 355 354 354 352 348 342 333 319 312 322 327 319 188 206 245 229 245 200 224 172 179 189 189 185 189 213 231 231 227 226 91 91 260 87 95 145 170 179
344 344 343 343 344 344 344 345 345 346 346 346 346 344 339 332 318 293 312 318 276 212 229 255 162 271 157 143 161 181 173 175 187 194 214 206 226 232 233 130 204 297 49 99 93 129 211
333 333 333 333 333 334 334 335 336 337 337 339 341 339 337 330 319 269 259 279 15 346 295 223 234 238 197 172 183 171 177 191 197 204 221 186 236 252 99 331 314 292 49 85 128 161 233
319 319 321 323 325 326 326 327 329 330 331 331 334 337 334 333 326 254 258 286 294 328 258 182 203 209 192 200 204 174 191 213 199 216 206 243 218 246 254 223 229 237 241 142 157 189 250
310 314 315 318 319 321 321 322 323 325 327 327 327 332 336 333 3 288 256 233 302 311 271 161 182 192 179 205 200 183 199 199 201 223 220 236 264 209 237 236 248 149 353 206 235 115 76
326 322 319 319 319 321 323 321 321 321 323 322 323 323 333 322 290 271 255 271 289 287 274 147 157 146 175 208 125 192 195 210 233 219 214 214 220 222 233 223 222 66 147 264 258 268 171
321 320 319 320 320 321 323 323 320 321 321 318 319 317 320 330 286 257 283 269 282 231 246 159 148 188 180 219 205 153 187 225 282 206 224 288 222 213 213 198 225 345 210 226 243 250 261
320 320 320 321 321 321 323 323 322 322 320 316 318 313 306 292 225 269 259 228 226 244 106 167 175 181 198 184 169 172 189 198 201 207 201 210 185 196 241 199 188 226 222 130 300 357 320
317 318 319 320 319 321 323 324 324 323 321 316 317 315 298 278 242 236 224 224 244 249 225 130 187 187 205 177 191 189 190 205 232 232 207 199 172 186 204 228 196 209 263 277 285 182 186
318 318 318 319 320 319 320 323 324 327 325 318 320 322 287 281 234 209 217 223 223 252 279 171 207 196 204 207 219 189 214 215 205 231 257 196 198 167 185 230 262 150 255 277 298 198 266
318 317 317 318 318 318 319 319 322 324 328 325 326 311 259 235 237 202 227 236 239 261 329 271 219 220 220 203 197 203 194 221 222 201 256 305 152 175 178 241 244 282 331 213 216 185 261
315 317 318 318 317 318 320 321 322 324 328 330 334 284 176 285 179 210 226 232 238 255 250 268 252 240 228 216 197 210 195 204 221 191 228 256 251 160 157 208 219 189 238 237 286 336 298
313 314 316 317 317 319 320 322 325 328 330 353 293 258 182 181 222 222 230 237 261 257 242 247 280 284 248 247 231 220 214 202 190 219 200 229 234 178 203 210 266 304 282 242 224 191 291
313 314 317 318 317 320 322 323 326 334 338 347 280 283 243 203 246 235 226 251 247 234 241 227 238 249 259 263 243 248 240 233 160 223 202 215 242 189 200 184 206 241 248 267 276 282 173
315 317 320 321 321 320 322 323 327 337 339 337 287 273 198 219 249 285 283 224 238 228 259 255 238 237 245 253 245 242 238 169 193 221 80 264 235 251 150 319 169 199 222 254 277 276 258
316 318 320 322 322 321 320 319 323 335 346 323 245 272 354 275 241 236 260 279 268 240 214 246 250 246 239 244 238 228 257 200 203 187 224 232 242 234 182 236 275 301 290 276 257 270 283
317 319 319 321 322 320 316 309 311 325 340 276 293 318 339 285 285 268 254 254 259 257 246 225 230 238 230 245 254 258 224 248 198 189 222 219 246 269 294 228 260 271 265 264 253 255 256
317 318 319 319 320 322 316 312 304 304 296 278 296 279 262 280 275 268 256 276 249 257 289 272 320 272 235 268 283 308 313 305 231 202 212 225 237 237 241 254 205 253 251 252 246 253 253
314 316 318 318 317 314 312 307 296 278 260 247 263 297 281 261 247 271 323 293 282 274 244 251 212 268 3 338 317 286 279 275 267 265 199 220 233 236 244 256 226 252 36 334 314 297 279
312 316 318 317 313 309 308 313 308 308 252 243 254 254 279 272 281 254 326 317 287 264 247 256 256 258 287 296 292 250 247 250 245 238 252 215 215 228 245 241 234 209 198 230 240 257 255
313 320 327 323 317 312 307 312 299 292 288 239 249 256 237 311 258 307 286 262 279 276 275 231 239 247 261 263 257 241 232 214 221 217 227 248 204 233 218 255 256 241 211 155 287 265 230
313 328 334 332 323 309 297 293 284 284 282 237 251 251 225 239 272 286 277 314 296 268 259 262 259 244 230 249 244 244 246 244 221 210 192 230 224 217 226 227 242 235 121 116 227 59 114
312 327 335 330 326 324 310 299 291 266 262 257 256 262 248 244 274 264 268 271 269 277 291 16 266 215 238 260 240 235 242 244 251 231 199 208 205 225 233 233 234 146 158 193 4 126 254
311 332 329 323 321 324 317 309 298 284 250 245 253 260 255 241 258 275 261 256 251 262 284 261 309 18 169 278 252 300 260 252 241 241 185 214 218 216 228 224 197 158 216 198 244 188 199
Wind_Speed_850mb
38 37 36 35 34 33 32 31 31 30 28 26 23 21 19 17 17 17 17 15 14 11 10 12 11 9 15 15 5 5 16 22 18 10 12 15 21 13 13 6 12 26 18 28 21 23 27
36 36 36 36 35 35 34 33 32 31 29 28 25 22 20 18 17 16 16 16 10 6 4 8 10 4 9 28 6 6 13 19 17 16 15 14 11 16 11 14 28 22 19 25 31 21 12
33 33 34 34 35 35 35 35 34 33 31 30 28 25 22 19 17 16 17 19 7 2 1 2 7 1 14 4 7 10 18 20 20 17 16 12 12 18 14 24 21 27 28 20 28 19 10
31 32 33 34 34 35 35 35 34 34 33 32 30 27 25 21 18 17 16 17 12 5 6 3 3 8 4 4 10 11 17 22 24 18 13 12 13 23 23 14 14 14 24 12 17 23 11
28 29 31 32 33 34 34 35 35 35 35 34 32 31 28 24 19 16 15 20 14 5 8 5 2 11 11 6 16 16 15 21 23 21 17 14 14 35 10 34 8 24 11 24 20 23 23
27 28 29 31 32 34 35 35 36 36 36 36 34 32 31 27 21 15 13 21 9 7 9 10 13 16 14 19 19 19 18 19 29 25 20 22 21 24 28 16 9 33 10 13 19 22 19
30 30 31 32 33 34 36 37 37 38 38 37 36 32 30 29 23 13 11 17 7 8 20 27 10 15 7 14 19 20 20 25 29 29 30 32 23 29 30 33 44 19 10 16 15 16 17
33 34 35 37 39 40 40 40 39 39 38 38 37 35 30 28 21 12 5 12 8 13 21 24 18 15 7 19 23 22 26 28 28 29 36 23 26 33 3 12 11 17 1 8 11 14 17
34 35 37 39 40 41 42 43 42 40 39 37 37 36 31 25 15 6 12 11 7 18 17 25 21 27 23 21 26 30 33 31 27 31 30 28 27 19 9 18 20 25 7 11 26 18 16
38 38 39 39 40 42 42 42 41 40 39 39 37 35 33 18 5 11 13 14 12 16 14 32 25 17 27 23 16 32 34 22 24 27 24 25 30 12 23 25 26 3 14 7 14 16 5
36 36 37 39 39 41 41 41 41 40 39 39 38 36 29 25 18 7 4 9 13 11 13 29 30 28 30 31 31 29 32 21 25 25 21 29 23 22 25 27 30 8 8 12 12 23 26
40 40 39 40 41 41 42 42 41 40 41 40 38 34 30 22 17 17 16 13 11 15 19 22 23 26 30 31 21 28 33 27 19 19 27 19 4 19 28 6 7 7 12 14 20 22 18
39 39 40 41 41 42 44 46 45 42 41 41 35 33 31 22 7 12 10 14 15 21 13 22 32 34 34 23 25 32 32 33 23 23 25 25 25 23 11 23 17 22 32 9 12 10 17
41 41 41 42 41 41 43 44 44 45 42 42 37 34 29 21 20 19 12 20 25 21 37 8 30 34 33 31 25 33 34 31 37 40 19 24 27 27 24 31 14 27 35 19 15 16 12
39 39 39 40 41 41 41 42 41 39 40 44 40 21 22 17 16 18 27 26 28 31 14 15 21 28 36 28 19 31 36 34 35 28 32 17 16 33 30 20 20 12 15 28 18 15 9
36 35 34 34 36 38 40 40 41 40 37 36 39 22 19 18 16 19 22 38 36 34 19 22 35 28 33 34 28 26 33 34 33 34 35 6 19 27 24 18 21 29 25 13 13 4 20
36 34 34 34 35 35 35 38 41 38 32 30 22 16 9 10 15 27 25 39 41 37 17 26 33 35 36 29 35 28 24 23 36 30 29 32 20 17 18 25 30 16 20 15 24 15 7
35 34 34 35 37 36 35 35 37 38 30 18 14 10 7 4 20 31 28 41 20 32 31 31 19 33 26 35 27 36 31 28 34 31 31 35 16 24 33 29 15 22 18 17 13 16 13
32 32 33 34 34 33 33 33 31 32 29 24 13 27 15 16 14 24 29 33 33 26 37 34 32 27 23 30 26 30 31 13 23 26 22 30 23 20 25 28 24 21 28 27 27 26 19
32 31 32 32 31 31 29 27 27 25 21 15 14 9 21 26 35 27 29 31 31 37 43 38 33 35 25 26 29 27 30 22 22 29 4 23 30 28 3 26 7 26 18 10 26 21 16
28 28 28 28 25 27 26 24 22 21 16 10 13 7 12 9 11 20 28 19 25 35 27 36 30 30 28 30 33 33 29 22 19 20 17 25 35 20 21 30 8 15 16 16 22 30 32
27 27 29 29 28 26 23 20 20 15 9 7 16 12 16 32 28 20 18 27 34 27 26 30 26 31 36 33 33 27 31 41 29 27 30 34 34 26 26 12 12 21 20 24 22 24 27
30 28 27 27 27 25 22 19 17 15 9 10 12 18 16 21 22 20 23 24 28 26 18 24 20 21 11 14 25 34 40 45 31 36 34 36 31 25 29 26 18 21 27 26 21 20 19
28 27 28 28 26 21 18 18 18 18 16 16 11 14 19 21 18 19 20 26 21 22 23 22 12 10 8 23 32 27 35 43 40 30 34 35 31 25 23 23 25 24 7 11 17 18 18
26 26 27 26 23 19 18 20 17 19 19 20 20 9 12 16 26 16 16 27 30 28 23 34 32 23 25 25 15 16 26 35 42 32 35 32 30 26 22 27 23 20 15 19 18 20 18
23 24 27 22 20 19 18 16 11 16 17 25 22 19 13 10 12 24 22 21 20 19 24 34 30 22 13 11 15 27 26 30 42 40 32 35 28 23 21 27 32 25 7 21 6 20 21
21 20 22 23 22 22 19 17 13 13 14 14 26 17 14 10 35 31 18 10 14 23 18 8 12 31 21 16 19 24 29 37 40 46 22 32 26 31 28 19 22 8 14 17 15 6 8
17 18 20 23 23 21 18 17 16 14 14 15 21 21 22 12 35 37 27 31 28 25 18 23 16 23 19 19 23 22 23 30 36 37 47 39 32 29 28 29 28 19 20 20 4 5 5
14 15 17 19 22 22 20 17 16 17 15 18 27 20 21 29 28 24 31 40 40 33 23 17 22 8 7 9 12 12 26 28 35 29 24 36 34 30 28 25 23 21 26 21 25 8 10
Wind_Direction_850mb
49 46 44 43 40 38 35 32 30 28 23 19 13 5 356 348 346 352 354 2 8 25 56 66 73 124 154 208 85 243 186 182 179 207 238 254 267 306 307 75 62 86 96 113 110 97 108
44 42 39 37 35 33 31 28 25 23 18 14 9 2 353 345 343 346 347 348 340 335 43 50 49 133 207 241 142 208 169 191 193 220 237 244 316 304 307 26 90 95 109 113 118 102 100
38 36 33 30 28 25 23 21 19 17 13 9 5 358 349 340 339 341 345 354 22 228 234 36 19 33 241 37 168 206 197 203 209 215 239 240 289 277 287 115 126 137 134 133 115 121 111
28 28 26 24 22 20 17 14 12 10 7 4 0 354 347 336 333 336 343 352 327 266 224 268 311 226 297 177 207 204 196 206 213 213 223 250 269 276 286 88 193 155 148 139 137 147 139
16 15 14 14 13 12 10 7 6 3 1 358 356 351 344 333 324 325 332 338 328 246 219 260 230 235 186 238 201 198 189 201 198 201 224 253 255 254 176 224 138 134 204 133 155 171 154
0 359 357 357 358 358 358 357 356 355 354 354 352 348 342 333 319 312 322 327 319 188 206 245 229 245 200 224 172 179 189 189 185 189 213 231 231 227 226 91 91 260 87 95 145 170 179
344 344 343 343 344 344 344 345 345 346 346 346 346 344 339 332 318 293 312 318 276 212 229 255 162 271 157 143 161 181 173 175 187 194 214 206 226 232 233 130 204 297 49 99 93 129 211
333 333 333 333 333 334 334 335 336 337 337 339 341 339 337 330 319 269 259 279 15 346 295 223 234 238 197 172 183 171 177 191 197 204 221 186 236 252 99 331 314 292 49 85 128 161 233
319 319 321 323 325 326 326 327 329 330 331 331 334 337 334 333 326 254 258 286 294 328 258 182 203 209 192 200 204 174 191 213 199 216 206 243 218 246 254 223 229 237 241 142 157 189 250
310 314 315 318 319 321 321 322 323 325 327 327 327 332 336 333 3 288 256 233 302 311 271 161 182 192 179 205 200 183 199 199 201 223 220 236 264 209 237 236 248 149 353 206 235 115 76
326 322 319 319 319 321 323 321 321 321 323 322 323 323 333 322 290 271 255 271 289 287 274 147 157 146 175 208 125 192 195 210 233 219 214 214 220 222 233 223 222 66 147 264 258 268 171
321 320 319 320 320 321 323 323 320 321 321 318 319 317 320 330 286 257 283 269 282 231 246 159 148 188 180 219 205 153 187 225 282 206 224 288 222 213 213 198 225 345 210 226 243 250 261
320 320 320 321 321 321 323 323 322 322 320 316 318 313 306 292 225 269 259 228 226 244 106 167 175 181 198 184 169 172 189 198 201 207 201 210 185 196 241 199 188 226 222 130 300 357 320
317 318 319 320 319 321 323 324 324 323 321 316 317 315 298 278 242 236 224 224 244 249 225 130 187 187 205 177 191 189 190 205 232 232 207 199 172 186 204 228 196 209 263 277 285 182 186
318 318 318 319 320 319 320 323 324 327 325 318 320 322 287 281 234 209 217 223 223 252 279 171 207 196 204 207 219 189 214 215 205 231 257 196 198 167 185 230 262 150 255 277 298 198 266
318 317 317 318 318 318 319 319 322 324 328 325 326 311 259 235 237 202 227 236 239 261 329 271 219 220 220 203 197 203 194 221 222 201 256 305 152 175 178 241 244 282 331 213 216 185 261
315 317 318 318 317 318 320 321 322 324 328 330 334 284 176 285 179 210 226 232 238 255 250 268 252 240 228 216 197 210 195 204 221 191 228 256 251 160 157 208 219 189 238 237 286 336 298
313 314 316 317 317 319 320 322 325 328 330 353 293 258 182 181 222 222 230 237 261 257 242 247 280 284 248 247 231 220 214 202 190 219 200 229 234 178 203 210 266 304 282 242 224 191 291
313 314 317 318 317 320 322 323 326 334 338 347 280 283 243 203 246 235 226 251 247 234 241 227 238 249 259 263 243 248 240 233 160 223 202 215 242 189 200 184 206 241 248 267 276 282 173
315 317 320 321 321 320 322 323 327 337 339 337 287 273 198 219 249 285 283 224 238 228 259 255 238 237 245 253 245 242 238 169 193 221 80 264 235 251 150 319 169 199 222 254 277 276 258
316 318 320 322 322 321 320 319 323 335 346 323 245 272 354 275 241 236 260 279 268 240 214 246 250 246 239 244 238 228 257 200 203 187 224 232 242 234 182 236 275 301 290 276 257 270 283
317 319 319 321 322 320 316 309 311 325 340 276 293 318 339 285 285 268 254 254 259 257 246 225 230 238 230 245 254 258 224 248 198 189 222 219 246 269 294 228 260 271 265 264 253 255 256
317 318 319 319 320 322 316 312 304 304 296 278 296 279 262 280 275 268 256 276 249 257 289 272 320 272 235 268 283 308 313 305 231 202 212 225 237 237 241 254 205 253 251 252 246 253 253
314 316 318 318 317 314 312 307 296 278 260 247 263 297 281 261 247 271 323 293 282 274 244 251 212 268 3 338 317 286 279 275 267 265 199 220 233 236 244 256 226 252 36 334 314 297 279
312 316 318 317 313 309 308 313 308 308 252 243 254 254 279 272 281 254 326 317 287 264 247 256 256 258 287 296 292 250 247 250 245 238 252 215 215 228 245 241 234 209 198 230 240 257 255
313 320 327 323 317 312 307 312 299 292 288 239 249 256 237 311 258 307 286 262 279 276 275 231 239 247 261 263 257 241 232 214 221 217 227 248 204 233 218 255 256 241 211 155 287 265 230
313 328 334 332 323 309 297 293 284 284 282 237 251 251 225 239 272 286 277 314 296 268 259 262 259 244 230 249 244 244 246 244 221 210 192 230 224 217 226 227 242 235 121 116 227 59 114
312 327 335 330 326 324 310 299 291 266 262 257 256 262 248 244 274 264 268 271 269 277 291 16 266 215 238 260 240 235 242 244 251 231 199 208 205 225 233 233 234 146 158 193 4 126 254
311 332 329 323 321 324 317 309 298 284 250 245 253 260 255 241 258 275 261 256 251 262 284 261 309 18 169 278 252 300 260 252 241 241 185 214 218 216 228 224 197 158 216 198 244 188 199